Zurück zum Katalog

STARLINK-35543

AktivKommunikationVLEO
NORAD 66201·PAYLOAD·🇺🇸 United States

Gestartet Oct 26, 2025 von Cape Canaveral Space Force Station

Loading…

Nächste Überflüge (nächste 24 Stunden)

TLE

AktuellSource: CelesTrak SupGP

Epoche: Sep 14, 2026, 15:49 UTC

1 66201C 25243AA  26257.65951389 -.00042145  00000+0 -13548-2 0  2576
2 66201  53.1586  86.0845 0001324  90.8525 350.8668 15.31732863    11

Verfolge STARLINK-35543 in Echtzeit mit AllMySat

Download on the App Store